Regional Weather Roundup
Issued by NWS Northern Indiana

Home | Current Version | Previous Version | Text Only | Print | Product List | Glossary On
Versions: 1 2 3 4 5 6 7 8 9 10 11 12 13 14 15 16 17 18 19 20 21 22 23 24 25 26 27 28 29 30 31 32 33 34 35 36 37 38 39 40 41 42 43 44 45 46 47 48 49 50
887
ASUS43 KIWX 251600
RWRIWX

KIWX WEATHER ROUNDUP
NATIONAL WEATHER SERVICE NORTHERN INDIANA
1200 PM EDT SUN SEP 25 2016

NOTE: "FAIR" INDICATES FEW OR NO CLOUDS BELOW 12,000 FEET WITH NO
SIGNIFICANT WEATHER AND/OR OBSTRUCTIONS TO VISIBILITY.

* THESE STATIONS ARE NOT UNDER NWS QUALITY CONTROL. THEY ALSO MAY NOT
  REPORT WEATHER SUCH AS PRECIPITATION OR FOG.

INZ001>027-251700-
NORTHERN INDIANA

CITY           SKY/WX    TMP DP  RH WIND       PRES   REMARKS
GARY*          MOSUNNY   75  61  60 S12       30.08F
SOUTH BEND     PTSUNNY   72  55  55 SE10      30.13F
GOSHEN         SUNNY     73  53  49 S10       30.13F
ANGOLA*          N/A     70  63  78 VRB7      30.16F
FORT WAYNE     MOSUNNY   72  56  57 CALM      30.15F
PERU/GRISSOM   SUNNY     76  63  64 S6        30.11F

$$
INZ028>050-251700-
CENTRAL INDIANA

CITY           SKY/WX    TMP DP  RH WIND       PRES   REMARKS
LAFAYETTE      SUNNY     77  67  71 SE3       30.09F
MUNCIE*        SUNNY     78  61  55 S5        30.13F
INDIANAPOLIS   SUNNY     76  65  68 S3        30.12F

$$
MIZ043>046-050>051-056>058-064>065-071>073-077>080-251700-
SOUTHWEST LOWER MICHIGAN

CITY           SKY/WX    TMP DP  RH WIND       PRES   REMARKS
BATTLE CREEK   PTSUNNY   67  51  56 SE8       30.16F
BENTON HARBOR  MOSUNNY   71  54  54 SE12      30.11S
COLDWATER*     PTSUNNY   67  38  33 SE9       30.16F
HILLSDALE*     PTSUNNY   68  36  30 S7        30.18S
HOLLAND        PTSUNNY   67  56  67 SE10      30.13F
GRAND RAPIDS   PTSUNNY   67  54  63 SE9       30.15F
KALAMAZOO      SUNNY     68  51  54 SE7       30.15F
STURGIS*       MOSUNNY   71  46  39 SE7       30.14F
THREE RIVERS*  FAIR      70  51  51 SE6       30.15F

$$
OHZ001>008-015>018-024>025-251700-
NORTHWEST OHIO

CITY           SKY/WX    TMP DP  RH WIND       PRES   REMARKS
DEFIANCE       SUNNY     70  52  52 SE6       30.17F
FINDLAY        SUNNY     72  51  47 SE3       30.16F
TOLEDO EXPRESS SUNNY     67  51  56 E8        30.18F
TOLEDO METCALF SUNNY     69  51  52 E8        30.18F
LIMA           SUNNY     73  57  57 CALM      30.16F

$$
AND FOR LAKE MICHIGAN COASTAL AND OPEN LAKE BUOY OBSERVATIONS

STATION/POSITION TEMP    WIND        PRES    VSBY  WAVE
                 AIR SEA DIR/SP/G                  HT/PER
                 (F)     (DEG/KT/KT) (MB)    (MI)  (FT/S)
CALUMET HARBOR    71     170/  7/ 10 1018.0F
MICHIGAN CITY     70     130/ 12/ 16   N/A
BURNS HARBOR      74     170/  8/ 13 1019.0S
SAINT JOSEPH      67     200/  3/  9 1020.0
SOUTH LAKE BUOY   67 72  140/ 19/ 23 1018.2          5/ 5
4 MI NW BRIDGMAN  68 68  130/ 12/ 16 1019.2F         2/ 2
MICHIGAN CITY     68 68  150/  8/ 10   N/A           1/ 2

$$
&&




USA.gov is the U.S. government's official web portal to all federal, state and local government web resources and services.